Hourly Data Report for September 15, 2019

All times are specified in Local Standard Time (LST). Add 1 hour to adjust for Daylight Saving Time where and when it is observed.

EUREKA CLIMATE
NUNAVUT
Current Station Operator: ECCC - MSC

79°59'21.000" N
85°56'02.000" W
10.00 m
2401199
71613
NEK

Download Data

Hourly Data (September 2019)
Hourly Data Report for September 15, 2019
TIME Temp Definition
°C
Dew Point Definition
°C
Rel Hum Definition
%
Wind Dir Definition
10's deg

Wind Spd Definition
km/h
Visibility Definition
km
Stn Press Definition
kPa
Hmdx Definition


Wind Chill Definition


Weather Definition


00:00 -2.4 -2.9 96 2 6   100.96   -5 LegendNANA
01:00 -2.3 -2.9 96 2 6   101.00   -5 LegendNANA
02:00 -1.9 -4.3 84 16 1   101.02   -2 LegendNANA
03:00 -2.2 -5.0 82 8 4   101.06   -4 LegendNANA
04:00 -3.0 -5.4 83 2 9   101.09   -7 LegendNANA
05:00 -3.7 -5.7 86 2 12   101.13   -8 LegendNANA
06:00 -4.2 -6.2 86 2 12   101.17   -9 LegendNANA
07:00 -3.9 -5.9 86 2 11   101.20   -8 LegendNANA
08:00 -3.3 -6.0 82 2 11   101.23   -8 LegendNANA
09:00 -4.6 -6.4 87 2 11   101.27   -9 LegendNANA
10:00 -4.6 -6.5 86 2 7   101.29   -8 LegendNANA
11:00 -4.3 -6.2 87 4 4   101.33   -6 LegendNANA
12:00 -2.9 -5.1 85 5 5   101.37   -5 LegendNANA
13:00 -2.0 -6.0 74 36 5   101.41   -4 LegendNANA
14:00 -2.0 -5.5 77 2 5   101.45   -4 LegendNANA
15:00 -1.9 -5.2 78 9 7   101.51   -5 LegendNANA
16:00 -2.3 -4.7 83 12 7   101.56   -5 LegendNANA
17:00 -2.4 -4.3 87 12 8   101.62   -6 LegendNANA
18:00 -3.4 -4.8 90 9 9   101.67   -7 LegendNANA
19:00 -3.7 -4.7 93 10 10   101.71   -8 LegendNANA
20:00 -5.5 -6.8 91 6 7   101.75   -9 LegendNANA
21:00 -4.3 -4.9 95 9 9   101.79   -8 LegendNANA
22:00 -5.4 -6.1 95 6 6   101.85   -8 LegendNANA
23:00 -5.7 -6.3 96 4 6   101.90   -9 LegendNANA

Notes on Data Quality.

Legend

  • E = Estimated
  • M = Missing
  • NA = Not Available
Date modified: